Casablanca, Morocco

12:49 AM WET on February 19, 2018 (GMT +0000)
Casablanca

Weather History for GMMC - January, 2014

Change the Weather History Date:

Wednesday, January 15, 2014

  Actual Average (GMMN) Record (GMMN)
Temperature  
Mean Temperature 56 °F -  
Max Temperature 66 °F 62 °F 69 °F (2005)
Min Temperature 46 °F 42 °F 35 °F (2003)
Degree Days  
Heating Degree Days 9    
Growing Degree Days 6 (Base 50)    
Moisture  
Dew Point 50 °F    
Average Humidity 81    
Maximum Humidity 94    
Minimum Humidity 57    
Precipitation  
Precipitation 0.00 in 0.08 in - ()
Sea Level Pressure  
Sea Level Pressure 30.12 in    
Wind  
Wind Speed 3 mph ()    
Max Wind Speed 9 mph    
Max Gust Speed -    
Visibility 6.1 miles    
Events      
Averages and records for this station are not official NWS values.
T = Trace of Precipitation, MM = Missing Value Source: Averaged Metar Reports

Daily Weather History Graph

Daily Weather History Graph

Search for Another Location

Airport or City:

Trip Planner

Search our weather history database for the weather conditions in past years. The results will help you decide how hot, cold, wet, or windy it might be!

Date:

Astronomy

Jan. 15, 2014 Rise Set
Actual Time 7:34 AM WET 5:45 PM WET
Civil Twilight 7:08 AM WET 6:12 PM WET
Nautical Twilight 6:37 AM WET 6:42 PM WET
Astronomical Twilight 6:07 AM WET 7:12 PM WET
Moon 5:28 PM WET (1/15) 6:44 AM WET (1/15)
Length of Visible Light 11h 04m
Length of Day
10h 10m
Full, 100% of the Moon is Illuminated
Jan 15
Full
Jan 16
Full
Jan 24
Last Quarter
Jan 30
New
Feb 6
First Quarter

Hourly Weather History & Observations

Time (WET) Temp. Dew Point Humidity Pressure Visibility Wind Dir Wind Speed Gust Speed Precip Events Conditions
12:00 AM 52 °F 47 °F 76% 30.24 in 6 mi SSW 2.3 mph - -  
12:00 AM 51.8 °F 46.4 °F 82% 30.21 in - SSW 2.3 mph - N/A   Clear
1:00 AM 50.0 °F 46.4 °F 87% 30.18 in - SSW 3.5 mph - N/A   Clear
2:00 AM 50.0 °F 46.4 °F 87% 30.18 in - SW 3.5 mph - N/A   Clear
3:00 AM 50 °F 46 °F 81% 30.19 in 6 mi South 3.5 mph - -  
3:00 AM 50.0 °F 46.4 °F 87% 30.18 in - South 3.5 mph - N/A   Clear
4:00 AM 50.0 °F 44.6 °F 82% 30.15 in - SSW 3.5 mph - N/A   Clear
5:00 AM 48.2 °F 44.6 °F 87% 30.15 in - SSW 3.5 mph - N/A   Clear
6:00 AM 47 °F 44 °F 85% 30.15 in 6 mi SE 2.3 mph - -  
6:00 AM 46.4 °F 44.6 °F 93% 30.12 in - SE 2.3 mph - N/A   Clear
7:00 AM 48.2 °F 44.6 °F 87% 30.15 in - SSW 3.5 mph - N/A   Clear
8:00 AM 48.2 °F 44.6 °F 87% 30.15 in - SSW 3.5 mph - N/A   Clear
9:00 AM 49 °F 45 °F 79% 30.15 in 6 mi SSW 3.5 mph - -  
9:00 AM 51.8 °F 46.4 °F 82% 30.15 in - SSW 4.6 mph - N/A   Clear
10:00 AM 55.4 °F 48.2 °F 77% 30.15 in - South 3.5 mph - N/A   Clear
11:00 AM 60.8 °F 50.0 °F 68% 30.15 in - SE 2.3 mph - N/A   Clear
12:00 PM 63 °F 52 °F 58% 30.14 in 6 mi ENE 3.5 mph - -  
12:00 PM 62.6 °F 51.8 °F 68% 30.12 in - ENE 3.5 mph - N/A   Clear
1:00 PM 64.4 °F 53.6 °F 68% 30.09 in 6.2 mi NE 2.3 mph - N/A   Partly Cloudy
2:00 PM 66.2 °F 53.6 °F 64% 30.06 in 6.2 mi NNE 4.6 mph - N/A   Partly Cloudy
3:00 PM 64 °F 52 °F 57% 30.07 in 6 mi North 4.6 mph - -   Scattered Clouds
3:00 PM 64.4 °F 51.8 °F 64% 30.06 in 6.2 mi North 4.6 mph - N/A   Partly Cloudy
4:00 PM 62.6 °F 53.6 °F 72% 30.04 in 6.2 mi North 4.6 mph - N/A   Partly Cloudy
5:00 PM 60.8 °F 55.4 °F 82% 30.06 in 6.2 mi North 9.2 mph - N/A   Mostly Cloudy
6:00 PM 60 °F 56 °F 82% 30.07 in 6 mi North 4.6 mph - -   Partly Cloudy
6:00 PM 59.0 °F 55.4 °F 88% 30.06 in 6.2 mi North 4.6 mph - N/A   Mostly Cloudy
7:00 PM 59.0 °F 57.2 °F 94% 30.06 in 6.2 mi North 4.6 mph - N/A   Scattered Clouds
8:00 PM 59.0 °F 55.4 °F 88% 30.04 in 6.2 mi North 4.6 mph - N/A   Scattered Clouds
9:00 PM 57 °F 55 °F 92% 30.08 in 6 mi Calm Calm - -   Partly Cloudy
9:00 PM 57.2 °F 55.4 °F 94% 30.06 in 6.2 mi Calm Calm - N/A   Scattered Clouds
10:00 PM 57.2 °F 55.4 °F 94% 30.06 in 6.2 mi SSW 2.3 mph - N/A   Scattered Clouds
11:00 PM 57.2 °F 53.6 °F 88% 30.06 in 6.2 mi SW 2.3 mph - N/A   Mostly Cloudy